Heubes-Wetterstation in 44289 Dortmund
Heubes-Wetterstation

Messwerte der letzten 60 Minuten im Minuten-Intervall (Wetterstation 44289 Dortmund)

Datum & Uhrzeit Temp. Feucht. Wind-Ø Böen Sekt.  Regen Rate Luftdruck
20.07.2018 - 14:1828.4 °C39%3 km/h 14 km/h SW0.0 mm 0.0 mm 1012.1 hPa, gleichbleibend
20.07.2018 - 14:1728.4 °C38%1 km/h 14 km/h S-SW0.0 mm 0.0 mm 1012.1 hPa, gleichbleibend
20.07.2018 - 14:1628.3 °C38%1 km/h 11 km/h W-SW0.0 mm 0.0 mm 1012.1 hPa, gleichbleibend
20.07.2018 - 14:1528.3 °C38%1 km/h 10 km/h W-NW0.0 mm 0.0 mm 1012.1 hPa, gleichbleibend
20.07.2018 - 14:1428.3 °C38%1 km/h 5 km/h N-NW0.0 mm 0.0 mm 1012.1 hPa, gleichbleibend
20.07.2018 - 14:1328.4 °C37.5%1 km/h 13 km/h NW0.0 mm 0.0 mm 1012.1 hPa, gleichbleibend
20.07.2018 - 14:1228.6 °C37%1 km/h 1 km/h N-NW0.0 mm 0.0 mm 1012.1 hPa, gleichbleibend
20.07.2018 - 14:1128.6 °C36.5%1 km/h 1 km/h N0.0 mm 0.0 mm 1012.1 hPa, gleichbleibend
20.07.2018 - 14:1028.7 °C37.5%1 km/h 1 km/h N0.0 mm 0.0 mm 1012.1 hPa, gleichbleibend
20.07.2018 - 14:0928.8 °C37%1 km/h 5 km/h N-NO0.0 mm 0.0 mm 1012.1 hPa, gleichbleibend
20.07.2018 - 14:0828.7 °C37%1 km/h 3 km/h N-NO0.0 mm 0.0 mm 1012.1 hPa, gleichbleibend
20.07.2018 - 14:0728.7 °C36%2 km/h 1 km/h W-NW0.0 mm 0.0 mm 1012.1 hPa, gleichbleibend
20.07.2018 - 14:0628.8 °C36%3 km/h 0 km/h W-NW0.0 mm 0.0 mm 1012.1 hPa, langsam fallend
20.07.2018 - 14:0528.8 °C37%3 km/h 1 km/h W-NW0.0 mm 0.0 mm 1012.2 hPa, gleichbleibend
20.07.2018 - 14:0428.8 °C37%4 km/h 5 km/h W0.0 mm 0.0 mm 1012.2 hPa, gleichbleibend
20.07.2018 - 14:0328.8 °C40%5 km/h 3 km/h NW0.0 mm 0.0 mm 1012.2 hPa, gleichbleibend
20.07.2018 - 14:0228.6 °C39%5 km/h 11 km/h S-SW0.0 mm 0.0 mm 1012.2 hPa, gleichbleibend
20.07.2018 - 14:0128.6 °C37.5%5 km/h 5 km/h W0.0 mm 0.0 mm 1012.2 hPa, gleichbleibend
20.07.2018 - 14:0028.7 °C38.5%5 km/h 11 km/h SW0.0 mm 0.0 mm 1012.2 hPa, gleichbleibend
20.07.2018 - 13:5928.6 °C38.3%5 km/h 8 km/h S-SW0.0 mm 0.0 mm 1012.2 hPa, gleichbleibend
20.07.2018 - 13:5828.6 °C38%5 km/h 3 km/h W-SW0.0 mm 0.0 mm 1012.2 hPa, gleichbleibend
20.07.2018 - 13:5728.6 °C37.5%5 km/h 1 km/h W-SW0.0 mm 0.0 mm 1012.3 hPa, gleichbleibend
20.07.2018 - 13:5628.7 °C38%5 km/h 7 km/h W-SW0.0 mm 0.0 mm 1012.2 hPa, gleichbleibend
20.07.2018 - 13:5528.7 °C38%5 km/h 8 km/h S-SW0.0 mm 0.0 mm 1012.3 hPa, gleichbleibend
20.07.2018 - 13:5428.7 °C39%4 km/h 16 km/h S-SW0.0 mm 0.0 mm 1012.3 hPa, gleichbleibend
20.07.2018 - 13:5328.7 °C36.3%3 km/h 14 km/h S-SW0.0 mm 0.0 mm 1012.3 hPa, gleichbleibend
20.07.2018 - 13:5228.9 °C37%3 km/h 8 km/h SW0.0 mm 0.0 mm 1012.3 hPa, gleichbleibend
20.07.2018 - 13:5128.9 °C38%3 km/h 7 km/h S-SW0.0 mm 0.0 mm 1012.3 hPa, langsam fallend
20.07.2018 - 13:5028.8 °C38.5%3 km/h 14 km/h S0.0 mm 0.0 mm 1012.4 hPa, gleichbleibend
20.07.2018 - 13:4928.9 °C39%3 km/h 16 km/h S0.0 mm 0.0 mm 1012.4 hPa, langsam steigend
20.07.2018 - 13:4828.9 °C37%3 km/h 3 km/h W-SW0.0 mm 0.0 mm 1012.3 hPa, gleichbleibend
20.07.2018 - 13:4728.9 °C38%2 km/h 11 km/h W-SW0.0 mm 0.0 mm 1012.3 hPa, gleichbleibend
20.07.2018 - 13:4628.8 °C37%2 km/h 10 km/h S-SW0.0 mm 0.0 mm 1012.3 hPa, gleichbleibend
20.07.2018 - 13:4528.8 °C38%3 km/h 3 km/h SW0.0 mm 0.0 mm 1012.3 hPa, langsam fallend
20.07.2018 - 13:4428.8 °C38%3 km/h 0 km/h S-SO0.0 mm 0.0 mm 1012.4 hPa, gleichbleibend
20.07.2018 - 13:4328.7 °C39%3 km/h 8 km/h S-SO0.0 mm 0.0 mm 1012.4 hPa, gleichbleibend
20.07.2018 - 13:4228.7 °C36%3 km/h 11 km/h SW0.0 mm 0.0 mm 1012.4 hPa, gleichbleibend
20.07.2018 - 13:4128.7 °C37.5%2 km/h 10 km/h SW0.0 mm 0.0 mm 1012.4 hPa, gleichbleibend
20.07.2018 - 13:4028.6 °C38%3 km/h 0 km/h N-NO0.0 mm 0.0 mm 1012.4 hPa, gleichbleibend
20.07.2018 - 13:3928.5 °C39%3 km/h 1 km/h N-NO0.0 mm 0.0 mm 1012.4 hPa, langsam fallend
20.07.2018 - 13:3828.4 °C38.5%3 km/h 1 km/h N-NO0.0 mm 0.0 mm 1012.5 hPa, gleichbleibend
20.07.2018 - 13:3728.3 °C39%3 km/h 5 km/h SW0.0 mm 0.0 mm 1012.5 hPa, gleichbleibend
20.07.2018 - 13:3628.3 °C39.3%3 km/h 10 km/h W0.0 mm 0.0 mm 1012.5 hPa, gleichbleibend
20.07.2018 - 13:3528.3 °C38%3 km/h 16 km/h S-SW0.0 mm 0.0 mm 1012.5 hPa, gleichbleibend
20.07.2018 - 13:3428.4 °C38%3 km/h 5 km/h SW0.0 mm 0.0 mm 1012.5 hPa, gleichbleibend
20.07.2018 - 13:3328.4 °C38%3 km/h 1 km/h SW0.0 mm 0.0 mm 1012.5 hPa, gleichbleibend
20.07.2018 - 13:3228.4 °C39.5%3 km/h 0 km/h S-SW0.0 mm 0.0 mm 1012.5 hPa, gleichbleibend
20.07.2018 - 13:3128.4 °C37%3 km/h 5 km/h S-SW0.0 mm 0.0 mm 1012.5 hPa, gleichbleibend
20.07.2018 - 13:3028.4 °C38.5%3 km/h 8 km/h SW0.0 mm 0.0 mm 1012.5 hPa, gleichbleibend
20.07.2018 - 13:2928.4 °C39%3 km/h 3 km/h W-SW0.0 mm 0.0 mm 1012.5 hPa, gleichbleibend
20.07.2018 - 13:2828.4 °C39%3 km/h 10 km/h SW0.0 mm 0.0 mm 1012.5 hPa, gleichbleibend
20.07.2018 - 13:2728.4 °C38%3 km/h 13 km/h W-SW0.0 mm 0.0 mm 1012.5 hPa, langsam fallend
20.07.2018 - 13:2628.4 °C38%1 km/h 16 km/h S-SW0.0 mm 0.0 mm 1012.6 hPa, gleichbleibend
20.07.2018 - 13:2528.4 °C37%2 km/h 1 km/h S-SW0.0 mm 0.0 mm 1012.6 hPa, gleichbleibend
20.07.2018 - 13:2428.4 °C38%3 km/h 3 km/h S-SW0.0 mm 0.0 mm 1012.6 hPa, gleichbleibend
20.07.2018 - 13:2328.4 °C37%3 km/h 5 km/h S-SO0.0 mm 0.0 mm 1012.6 hPa, gleichbleibend
20.07.2018 - 13:2228.5 °C38.8%3 km/h 7 km/h S0.0 mm 0.0 mm 1012.6 hPa, gleichbleibend
20.07.2018 - 13:2128.6 °C38.5%3 km/h 16 km/h W-SW0.0 mm 0.0 mm 1012.6 hPa, gleichbleibend
20.07.2018 - 13:2028.4 °C38.7%3 km/h 14 km/h S-SW0.0 mm 0.0 mm 1012.6 hPa, gleichbleibend
20.07.2018 - 13:1928.4 °C38%3 km/h 13 km/h SW0.0 mm 0.0 mm 1012.6 hPa, langsam fallend